Regional Weather Roundup
Issued by NWS Charleston, WV

Home | Current Version | Previous Version | Text Only | Print | Product List | Glossary On
Versions: 1 2 3 4 5 6 7 8 9 10 11 12 13 14 15 16 17 18 19 20 21 22 23 24 25 26 27 28 29 30 31 32 33 34 35 36 37 38 39 40 41 42 43 44 45 46 47 48 49 50
000
ASUS41 KRLX 100110
RWRRLX
West Virginia Regional Weather Roundup
National Weather Service Charleston WV
Issued by National Weather Service Pittsburgh PA
800 PM EST FRI DEC 09 2016

Note: "fair" indicates few or no clouds below 12,000 feet with no
significant weather and/or obstructions to visibility.

WVZ003-100200-
Northern Panhandle of West Virginia

CITY           SKY/WX    TMP DP  RH WIND       PRES   REMARKS
WHEELING       CLOUDY    24  18  77 W8        30.42S WCI  15
$$

WVZ009-100200-
Northwest West Virginia

CITY           SKY/WX    TMP DP  RH WIND       PRES   REMARKS
PARKERSBURG    CLOUDY    26  13  57 W6        30.52S WCI  19
$$

WVZ006-100200-
Western West Virginia

CITY           SKY/WX    TMP DP  RH WIND       PRES   REMARKS
HUNTINGTON     CLOUDY    25  13  60 SW7       30.53S WCI  17
$$

WVZ015-100200-
West Central West Virginia

CITY           SKY/WX    TMP DP  RH WIND       PRES   REMARKS
CHARLESTON     FLURRIES  24  12  60 W8        30.52R WCI  15
$$

WVZ031-100200-
North Central West Virginia

CITY           SKY/WX    TMP DP  RH WIND       PRES   REMARKS
CLARKSBURG     CLOUDY    24  15  68 SW7       30.44F WCI  16
MORGANTOWN     CLOUDY    27  15  61 SW6       30.43S WCI  20
$$

WVZ035-042-100200-
South Central West Virginia

CITY           SKY/WX    TMP DP  RH WIND       PRES   REMARKS
BECKLEY        CLOUDY    19  11  70 W13       30.39S WCI   6
BLUEFIELD      CLOUDY    16   8  71 NW7       30.38R WCI   6
$$

WVZ045-100200-
Greenbrier Valley of West Virginia

CITY           SKY/WX    TMP DP  RH WIND       PRES   REMARKS
LEWISBURG      CLOUDY    20  10  65 NW5       30.38S WCI  14
$$

WVZ047-100200-
Northern Mountains of West Virginia

CITY           SKY/WX    TMP DP  RH WIND       PRES   REMARKS
ELKINS         CLOUDY    21  11  65 W3        30.39F
$$

WVZ052-100200-
Eastern Panhandle of West Virginia

CITY           SKY/WX    TMP DP  RH WIND       PRES   REMARKS
MARTINSBURG    CLOUDY    30  17  58 W13       30.40F WCI  20
PETERSBURG     PTCLDY    28  15  58 NW10      30.43F WCI  19
$$




USA.gov is the U.S. government's official web portal to all federal, state and local government web resources and services.